Location: Boiro
(42.6475°N, 8.8834°W)
Time: 00:54:24
(UTC+01:00)

Vanguard 2 Rocket - Pass Details

Date: 13 December 2021
Orbit: 553 x 3325 km, 32.9° (Epoch: 26 January)

Event Time Altitude Azimuth Distance (km) Brightness Sun altitude
Rises 18:33:37 0° 247° (WSW) 2,762 12.2 -5.9°
Reaches altitude 10° 18:35:50 10° 235° (SW) 1,962 10.4 -6.2°
Maximum altitude 18:39:35 28° 175° (S) 1,351 8.0 -6.9°
Drops below altitude 10° 18:44:42 10° 117° (ESE) 2,734 9.0 -7.7°
Sets 18:48:25 0° 108° (ESE) 4,118 9.8 -8.3°
